Regional Weather Roundup
Issued by NWS

Home | Current Version | Previous Version | Text Only | Print | Product List | Glossary On
Versions: 1 2 3 4 5 6 7 8 9 10 11 12 13 14 15 16 17 18 19 20 21 22 23 24 25 26 27 28 29 30 31 32 33 34 35 36 37 38 39 40 41 42 43 44 45 46 47 48
000
ASUS46 KPQR 040410
RWROR

OREGON REGIONAL WEATHER ROUNDUP
NATIONAL WEATHER SERVICE PORTLAND OR
800 PM PST TUE MAR 03 2015

NOTE: "FAIR" INDICATES FEW OR NO CLOUDS BELOW 12,000 FEET WITH
NO SIGNIFICANT WEATHER AND/OR OBSTRUCTIONS TO VISIBILITY.

ORZ001>013-040500-
NORTHWEST OREGON


CITY           SKY/WX    TMP DP  RH WIND       PRES   REMARKS
ASTORIA        CLEAR     42  34  73 CALM      30.21R
NEWPORT        CLEAR     39  37  93 CALM      30.21S
PORTLAND       PTCLDY    44  30  57 NW6       30.19R
VANCOUVER WA   PTCLDY    48  24  39 NW3       30.18S
SCAPPOOSE      CLEAR     39  29  67 W6        30.19R WCI  35
HILLSBORO      CLEAR     45  29  53 N6        30.18R
AURORA         PTCLDY    45  27  49 NE3       30.19R
MCMINNVILLE    CLEAR     41  31  67 N5        30.19R
SALEM          PTCLDY    45  27  49 N7        30.17R
CORVALLIS      CLEAR     39  32  75 NW5       30.17F
EUGENE         CLEAR     40  32  73 N6        30.17R
$$

ORZ021-028-040500-
SOUTHWEST OREGON


CITY           SKY/WX    TMP DP  RH WIND       PRES   REMARKS
NORTH BEND     CLEAR     46  43  87 CALM      30.17S
BROOKINGS      CLEAR     49  40  71 CALM      30.05R
ROSEBURG       CLEAR     49  35  58 CALM      30.14R
SEXTON SUMMIT  CLEAR     36  29  75 N9        30.06R WCI  29
MEDFORD        CLEAR     49  34  56 NE3       30.08R
$$

ORZ014>016-041-040500-
COLUMBIA GORGE


CITY           SKY/WX    TMP DP  RH WIND       PRES   REMARKS
TROUTDALE      PTCLDY    45  29  53 E5        30.18R
THE DALLES     CLEAR     41  23  48 CALM      30.21R
$$

ORZ029>031-041-044-049-050-061>064-502-503-505>511-040500-
EASTERN OREGON


CITY           SKY/WX    TMP DP  RH WIND       PRES   REMARKS
REDMOND        CLEAR     29  16  58 NW3       30.13R
BEND           CLEAR     30  18  59 CALM      30.13R
PRINEVILLE     CLEAR     27  18  69 CALM      30.13R
KLAMATH FALLS  PTCLDY    34  20  56 W3        30.05R
LAKEVIEW       CLEAR     28  16  59 NW10      30.07R WCI  19
HERMISTON      CLEAR     32  18  56 S7        30.21R WCI  26
PENDLETON      CLEAR     29  15  56 E9        30.19R WCI  20
JOHN DAY       CLEAR     32  18  57 SW5       30.12S WCI  27
MEACHAM        CLEAR     23  14  68 CALM      30.11S
LA GRANDE      CLEAR     28  10  47 N7        30.14R WCI  21
BAKER CITY     CLEAR     26  13  57 N10       30.11R WCI  16
BURNS          CLEAR     25  15  66 W7        30.09R WCI  17
ROME             N/A     27   9  46 SW3       30.05R
ONTARIO        CLEAR     37  11  34 NW20      30.10R WCI  27
$$



USA.gov is the U.S. government's official web portal to all federal, state and local government web resources and services.